Weather History for KHRT - August, 2013

Change the Weather History Date:

Saturday, August 17, 2013

  Actual Average Record
Temperature  
Mean Temperature 74 °F -  
Max Temperature 77 °F 87 °F 94 °F (2006)
Min Temperature 71 °F 72 °F 41 °F (1998)
Cooling Degree Days 9    
Growing Degree Days 24 (Base 50)    
Moisture  
Dew Point 70 °F    
Average Humidity 89    
Maximum Humidity 94    
Minimum Humidity 64    
Precipitation  
Precipitation 3.41 in - - ()
Sea Level Pressure  
Sea Level Pressure 29.98 in    
Wind  
Wind Speed 8 mph (ENE)    
Max Wind Speed 22 mph    
Max Gust Speed 25 mph    
Visibility 6 miles    
Events Rain    
Averages and records for this station are not official NWS values.
T = Trace of Precipitation, MM = Missing Value Source: NWS Daily Summary

Daily Weather History Graph

Daily Weather History Graph

Search for Another Location

Airport or City:

Trip Planner

Search our weather history database for the weather conditions in past years. The results will help you decide how hot, cold, wet, or windy it might be!

Date:

Astronomy

Aug. 17, 2013 Rise Set
Actual Time 6:14 AM CDT 7:26 PM CDT
Civil Twilight 5:49 AM CDT 7:51 PM CDT
Nautical Twilight 5:19 AM CDT 8:21 PM CDT
Astronomical Twilight 4:48 AM CDT 8:51 PM CDT
Moon 4:34 PM CDT (8/17) 2:25 AM CDT (8/17)
Length of Visible Light 14h 01m
Length of Day
13h 11m
Waxing Gibbous, 84% of the Moon is Illuminated
Aug 17
Waxing Gibbous
Aug 20
Full
Aug 28
Last Quarter
Sep 5
New
Sep 12
First Quarter

Hourly Weather History & Observations

Time (CDT) Temp. Dew Point Humidity Pressure Visibility Wind Dir Wind Speed Gust Speed Precip Events Conditions
12:11 AM 75.2 °F 71.6 °F 89% 29.99 in 10.0 mi NE 4.6 mph - N/A   Mostly Cloudy
12:58 AM 74.3 °F 72.0 °F 92% 29.99 in 10.0 mi ENE 5.8 mph - 0.00 in   Overcast
1:48 AM 73.4 °F 71.6 °F 94% 29.98 in 10.0 mi ENE 6.9 mph - N/A   Overcast
1:58 AM 73.9 °F 71.8 °F 93% 29.99 in 10.0 mi ENE 6.9 mph - N/A   Overcast
2:13 AM 73.4 °F 71.6 °F 94% 29.97 in 10.0 mi NE 5.8 mph - N/A   Overcast
2:41 AM 73.4 °F 71.6 °F 94% 29.96 in 10.0 mi NE 6.9 mph - N/A   Light Drizzle
2:51 AM 73.4 °F 71.6 °F 94% 29.96 in 8.0 mi NE 6.9 mph - N/A Rain Light Rain
2:58 AM 74.1 °F 72.0 °F 93% 29.97 in 8.0 mi NE 6.9 mph - 0.01 in Rain Light Rain
3:03 AM 73.4 °F 71.6 °F 94% 29.96 in 5.0 mi NE 6.9 mph - N/A Rain Heavy Rain
3:08 AM 73.4 °F 71.6 °F 94% 29.96 in 2.0 mi NNE 8.1 mph - N/A Rain Heavy Rain
3:13 AM 73.4 °F 71.6 °F 94% 29.95 in 1.8 mi NE 10.4 mph - N/A Rain Heavy Rain
3:18 AM 73.4 °F 71.6 °F 94% 29.95 in 3.0 mi NE 9.2 mph - N/A Rain Heavy Rain
3:23 AM 73.4 °F 71.6 °F 94% 29.95 in 7.0 mi NE 9.2 mph - N/A Rain Light Rain
3:28 AM 73.4 °F 71.6 °F 94% 29.95 in 10.0 mi ENE 9.2 mph - N/A Rain Light Rain
3:33 AM 73.4 °F 71.6 °F 94% 29.95 in 9.0 mi NE 8.1 mph - N/A Rain Rain
3:48 AM 73.4 °F 71.6 °F 94% 29.96 in 6.0 mi NNE 5.8 mph - N/A Rain Rain
3:53 AM 73.4 °F 71.6 °F 94% 29.95 in 6.0 mi NNE 6.9 mph - N/A Rain Heavy Rain
3:58 AM 73.8 °F 71.6 °F 93% 29.96 in 6.0 mi NE 5.8 mph - 0.29 in Rain Heavy Rain
4:03 AM 73.4 °F 71.6 °F 94% 29.95 in 5.0 mi NNE 8.1 mph - N/A Rain Heavy Rain
4:08 AM 73.4 °F 71.6 °F 94% 29.95 in 6.0 mi NNE 8.1 mph - N/A Rain Rain
4:13 AM 73.4 °F 71.6 °F 94% 29.95 in 7.0 mi NE 6.9 mph - N/A Rain Rain
4:38 AM 73.4 °F 71.6 °F 94% 29.94 in 5.0 mi NE 10.4 mph - N/A Rain Heavy Rain
4:43 AM 73.4 °F 71.6 °F 94% 29.94 in 5.0 mi NE 9.2 mph - N/A Rain Rain
4:53 AM 73.4 °F 71.6 °F 94% 29.94 in 10.0 mi ENE 9.2 mph - N/A Rain Light Rain
4:58 AM 73.2 °F 71.1 °F 93% 29.95 in 10.0 mi NE 9.2 mph - 0.14 in Rain Light Rain
5:18 AM 73.4 °F 71.6 °F 94% 29.94 in 10.0 mi NE 9.2 mph - N/A Rain Light Rain
5:28 AM 73.4 °F 71.6 °F 94% 29.94 in 7.0 mi ENE 12.7 mph - N/A Rain Light Rain
5:33 AM 73.4 °F 71.6 °F 94% 29.96 in 4.0 mi East 8.1 mph - N/A Rain Heavy Rain
5:38 AM 73.4 °F 71.6 °F 94% 29.96 in 2.0 mi ESE 12.7 mph 18.4 mph N/A Rain Heavy Rain
5:43 AM 73.4 °F 71.6 °F 94% 29.95 in 1.0 mi East 6.9 mph 18.4 mph N/A Rain Heavy Rain
5:48 AM 73.4 °F 71.6 °F 94% 29.95 in 1.0 mi ENE 8.1 mph 18.4 mph N/A Rain Heavy Rain
5:58 AM 73.4 °F 71.2 °F 93% 29.95 in 0.8 mi ENE 11.5 mph - 0.76 in Rain Heavy Rain
6:03 AM 73.4 °F 71.6 °F 94% 29.94 in 1.0 mi NE 8.1 mph - N/A Rain Heavy Rain
6:08 AM 73.4 °F 71.6 °F 94% 29.94 in 2.5 mi NE 9.2 mph - N/A Rain Heavy Rain
6:13 AM 73.4 °F 71.6 °F 94% 29.94 in 4.0 mi NE 8.1 mph - N/A Rain Heavy Rain
6:58 AM 72.9 °F 70.5 °F 92% 29.97 in 2.0 mi NNE 9.2 mph - 0.40 in Rain Heavy Rain
7:03 AM 73.4 °F 69.8 °F 88% 29.95 in 1.2 mi NE 10.4 mph - N/A Rain Heavy Rain
7:13 AM 73.4 °F 69.8 °F 88% 29.96 in 2.5 mi NE 11.5 mph - N/A Rain Heavy Rain
7:33 AM 73.4 °F 69.8 °F 88% 29.96 in 1.5 mi NE 10.4 mph - N/A Rain Heavy Rain
7:43 AM 73.4 °F 69.8 °F 88% 29.96 in 3.0 mi NE 10.4 mph - N/A Rain Heavy Rain
7:58 AM 72.7 °F 70.0 °F 91% 29.97 in 5.0 mi NE 11.5 mph - 0.40 in Rain Heavy Rain
8:23 AM 73.4 °F 69.8 °F 88% 29.97 in 10.0 mi North 10.4 mph - N/A Rain Rain
8:28 AM 73.4 °F 69.8 °F 88% 29.98 in 10.0 mi NNE 9.2 mph - N/A Rain Rain
8:53 AM 73.4 °F 69.8 °F 88% 29.98 in 10.0 mi North 5.8 mph - N/A Rain Light Rain
8:58 AM 72.9 °F 70.0 °F 91% 29.99 in 10.0 mi North 5.8 mph - 0.10 in Rain Light Rain
9:33 AM 73.4 °F 71.6 °F 94% 30.00 in 10.0 mi NNE 8.1 mph - N/A Rain Light Rain
9:43 AM 73.4 °F 71.6 °F 94% 30.00 in 10.0 mi NNE 5.8 mph - N/A Rain Light Rain
9:48 AM 73.4 °F 69.8 °F 88% 30.01 in 10.0 mi North 5.8 mph - N/A Rain Rain
9:58 AM 73.6 °F 70.9 °F 91% 30.01 in 10.0 mi NNE 8.1 mph - 0.03 in Rain Light Rain
10:03 AM 73.4 °F 71.6 °F 94% 29.99 in 10.0 mi NE 10.4 mph - N/A Rain Light Rain
10:23 AM 73.4 °F 69.8 °F 88% 29.99 in 10.0 mi NE 8.1 mph - N/A Rain Light Rain
10:53 AM 73.4 °F 69.8 °F 88% 30.02 in 8.0 mi ENE 4.6 mph - N/A Rain Light Rain
10:58 AM 73.2 °F 70.5 °F 91% 30.02 in 9.0 mi ENE 6.9 mph - 0.04 in Rain Light Rain
11:03 AM 73.4 °F 69.8 °F 88% 30.01 in 5.0 mi ENE 6.9 mph - N/A Rain Rain
11:58 AM 73.0 °F 70.3 °F 91% 30.02 in 5.0 mi East 9.2 mph - 0.24 in Rain Rain
12:58 PM 73.4 °F 70.0 °F 89% 30.02 in 3.0 mi SE 4.6 mph - 0.21 in Rain Heavy Rain
1:13 PM 73.4 °F 69.8 °F 88% 30.01 in 4.0 mi SSE 6.9 mph - N/A Rain Rain
1:23 PM 73.4 °F 69.8 °F 88% 30.01 in 4.0 mi South 10.4 mph - N/A Rain Rain
1:54 PM 71.6 °F 68.0 °F 88% 30.02 in 3.0 mi SSE 13.8 mph - N/A Rain Rain
1:58 PM 72.3 °F 68.4 °F 87% 30.02 in 3.0 mi SE 13.8 mph - 0.26 in Rain Rain
2:03 PM 71.6 °F 68.0 °F 88% 30.00 in 2.5 mi East 13.8 mph - N/A Rain Rain
2:04 PM 71.6 °F 66.2 °F 83% 30.00 in 2.5 mi ENE 13.8 mph - N/A Rain Rain
2:09 PM 71.6 °F 64.4 °F 78% 30.00 in 3.0 mi Variable 5.8 mph 19.6 mph N/A Rain Rain
2:19 PM 71.6 °F 66.2 °F 83% 30.00 in 2.0 mi Variable 3.5 mph - N/A Rain Heavy Rain
2:24 PM 71.6 °F 66.2 °F 83% 30.00 in 2.0 mi South 8.1 mph - N/A Rain Rain
2:29 PM 71.6 °F 68.0 °F 88% 30.00 in 3.0 mi South 12.7 mph - N/A Rain Light Rain
2:34 PM 71.6 °F 68.0 °F 88% 29.99 in 2.5 mi South 11.5 mph - N/A Rain Heavy Rain
2:44 PM 73.4 °F 69.8 °F 88% 29.99 in 5.0 mi SSE 15.0 mph - N/A Rain Light Rain
2:58 PM 73.6 °F 69.8 °F 88% 30.00 in 10.0 mi South 18.4 mph - 0.24 in Rain Light Rain
3:18 PM 73.4 °F 69.8 °F 88% 29.99 in 5.0 mi SSW 15.0 mph 21.9 mph N/A Rain Rain
3:23 PM 73.4 °F 69.8 °F 88% 29.99 in 5.0 mi SSW 16.1 mph 21.9 mph N/A Rain Rain
3:28 PM 73.4 °F 69.8 °F 88% 29.99 in 5.0 mi SSW 21.9 mph 24.2 mph N/A Rain Rain
3:33 PM 73.4 °F 68.0 °F 83% 30.00 in 5.0 mi SSW 17.3 mph - N/A Rain Rain
3:48 PM 73.4 °F 68.0 °F 83% 29.99 in 2.5 mi SSW 15.0 mph 25.3 mph N/A Rain Rain
3:53 PM 73.4 °F 68.0 °F 83% 30.00 in 3.0 mi SSW 13.8 mph - N/A Rain Light Rain
3:58 PM 73.8 °F 68.7 °F 84% 30.01 in 4.0 mi SSW 10.4 mph - 0.17 in Rain Light Rain
4:58 PM 74.7 °F 70.2 °F 86% 30.01 in 10.0 mi South 10.4 mph - 0.08 in Rain Light Rain
5:58 PM 76.1 °F 63.3 °F 64% 30.01 in 10.0 mi WSW 15.0 mph 23.0 mph 0.02 in Rain Light Rain
6:58 PM 73.4 °F 64.0 °F 72% 30.01 in 9.0 mi West 6.9 mph - 0.01 in Rain Light Rain
7:58 PM 77.0 °F 66.6 °F 70% 30.03 in 10.0 mi SW 9.2 mph - 0.00 in   Light Drizzle
8:05 PM 77.0 °F 68.0 °F 74% 30.01 in 10.0 mi SSW 9.2 mph - N/A   Mostly Cloudy
8:25 PM 77.0 °F 69.8 °F 78% 30.01 in 10.0 mi South 10.4 mph - N/A   Light Drizzle
8:58 PM 75.7 °F 68.2 °F 77% 30.03 in 10.0 mi SSW 4.6 mph - 0.00 in Rain Light Rain
9:58 PM 72.7 °F 69.6 °F 90% 30.04 in 10.0 mi NNE 4.6 mph - 0.01 in Rain Light Rain
10:19 PM 71.6 °F 69.8 °F 94% 30.01 in 10.0 mi NE 5.8 mph - N/A   Partly Cloudy
10:58 PM 72.7 °F 70.3 °F 92% 30.02 in 10.0 mi ENE 8.1 mph - 0.00 in   Mostly Cloudy
11:03 PM 73.4 °F 69.8 °F 88% 30.01 in 10.0 mi ENE 8.1 mph - N/A   Mostly Cloudy
11:08 PM 73.4 °F 69.8 °F 88% 30.00 in 10.0 mi East 8.1 mph - N/A   Mostly Cloudy
11:33 PM 73.4 °F 69.8 °F 88% 29.99 in 10.0 mi ENE 9.2 mph - N/A   Mostly Cloudy
11:58 PM 72.7 °F 70.2 °F 92% 30.00 in 10.0 mi ENE 8.1 mph - N/A   Scattered Clouds